Connexion

8Km

8 Km FORES TRAIL du 07/07/18 (Réelle 8)
Rang Dossard Nom Prénom Temps Cat Rang Cat Ecart Ecart Cat Club Vitesse Km/h Temps au Km
1 75 DASSONNEVILLE Xavier 00:41:13 V2M 1 00:00:00 00:00:00 Team Trail Audomarois 11,646 05:09
2 103 GOETGELUCK Arnaud 00:41:46 SEM 1 00:00:33 00:00:00 - 11,492 05:13
3 114 BAUDELET NICOLAS 00:42:22 SEM 2 00:01:09 00:00:36 LE DRAPEAU 11,330 05:18
4 12273 TERNISIEN KEVIN 00:44:34 SEM 3 00:03:21 00:02:48 - 10,770 05:34
5 16 MÉDINE Laura 00:44:38 SEF 1 00:03:25 00:00:00 BLANC NEZ TRIATHLON 10,754 05:35
6 52 MARTEL Samuel 00:44:41 V1M 1 00:03:28 00:00:00 - 10,742 05:35
7 49 HIBON Valentin 00:44:59 JUM 1 00:03:46 00:00:00 - 10,671 05:37
8 12272 FRANCOIS FREDERIC 00:46:02 V1M 2 00:04:49 00:01:21 S/L MARQUISE A 10,427 05:45
9 116 FLAHAUT FREDERIC 00:46:11 V1M 3 00:04:58 00:01:30 LE DRAPEAU 10,393 05:46
10 111 DAMOY Vincent 00:46:19 V1M 4 00:05:06 00:01:38 - 10,363 05:47
11 76 GATEL Caroline 00:47:14 SEF 2 00:06:01 00:02:36 - 10,162 05:54
12 129 RIBLET Elise 00:48:03 SEF 3 00:06:50 00:03:25 - 9,990 06:00
13 135 ROGER EMILIE 00:48:13 SEF 4 00:07:00 00:03:35 - 9,955 06:02
14 33 LEBEURRE André 00:48:35 V2M 2 00:07:22 00:07:22 - 9,880 06:04
15 26 PAQUE Clement 00:49:41 JUM 2 00:08:28 00:04:42 - 9,661 06:13
16 12261 MEURISSE MARION 00:56:23 SEF 5 00:15:10 00:11:45 8,513 07:03
17 133 BERNARD Ludivine 00:56:48 SEF 6 00:15:35 00:12:10 GRAVELINES TRIATHLON 8,451 07:06
18 99 LEVEL Marie-ange 00:56:59 SEF 7 00:15:46 00:12:21 - 8,424 07:07
19 59 DESCHRYVER Xavier 00:57:02 SEM 4 00:15:49 00:15:16 - 8,416 07:08
20 51 DUMILLY Jennifer 00:57:06 SEF 8 00:15:53 00:12:28 Ascc 8,406 07:08
21 22 ELLART Typhanie 00:57:31 SEF 9 00:16:18 00:12:53 - 8,345 07:11
22 89 BOIN Arnaud 00:57:33 V1M 5 00:16:20 00:12:52 JOGGING CLUB LICQUOIS 8,341 07:12
23 12265 GUILBERT JEAN-MARIE 00:57:33 V1M 6 00:16:20 00:12:52 8,341 07:12
24 1 TRONET Sébastien 00:57:53 SEM 5 00:16:40 00:16:07 - 8,293 07:14
25 144 LEVEL JUSTINE 00:58:10 SEF 10 00:16:57 00:13:32 8,252 07:16
26 127 MESSIANT Francoise 00:58:11 V3F 1 00:16:58 00:00:00 - 8,250 07:16
27 15 MAZINGUE Mickael 00:58:43 V1M 7 00:17:30 00:14:02 - 8,175 07:20
28 69 ELLART Mélissa 00:58:45 SEF 11 00:17:32 00:14:07 - 8,170 07:21
29 119 VASSE Karine 00:58:52 V1F 1 00:17:39 00:00:00 - 8,154 07:21
30 13 DEBEUSSCHER Amandine 00:59:03 SEF 12 00:17:50 00:14:25 - 8,129 07:23
31 147 FARDOUX JEREMY 00:59:22 V1M 8 00:18:09 00:14:41 8,085 07:25
32 12270 CARON CATHERINE 00:59:34 V2F 1 00:18:21 00:00:00 8,058 07:27
33 146 MALBAUT LAETITIA 00:59:41 SEF 13 00:18:28 00:15:03 8,042 07:28
34 78 GOUGAUD Sandrine 00:59:44 V1F 2 00:18:31 00:00:52 - 8,036 07:28
35 47 BARDON Sandrine 00:59:47 SEF 14 00:18:34 00:15:09 - 8,029 07:28
36 109 DUMOTIER Hélène 00:59:48 V1F 3 00:18:35 00:00:56 - 8,027 07:28
37 56 WAMPOUILLE Melanie 00:59:57 SEF 15 00:18:44 00:15:19 Cardiogoal 8,007 07:30
38 145 VERRONS FLORENCE 01:00:05 SEF 16 00:18:52 00:15:27 7,989 07:31
39 23 ELLART Elodie 01:00:26 SEF 17 00:19:13 00:15:48 - 7,943 07:33
40 2 TRONET Estelle 01:00:29 SEF 18 00:19:16 00:15:51 - 7,936 07:34
41 102 BLONDEEL Manon 01:00:33 SEF 19 00:19:20 00:15:55 - 7,927 07:34
42 40 DEWEVRE Emmanuel 01:00:49 V1M 9 00:19:36 00:16:08 - 7,893 07:36
43 63 SORET Laurent 01:01:01 V1M 10 00:19:48 00:16:20 - 7,867 07:38
44 24 CAQUET Julie 01:01:13 SEF 20 00:20:00 00:16:35 - 7,841 07:39
45 112 PLUMYOEN Elise 01:02:04 SEF 21 00:20:51 00:17:26 - 7,734 07:45
46 130 EVRARD PENNY 01:02:27 V1F 4 00:21:14 00:03:35 - 7,686 07:48
47 91 D'HALLENDE Muriel 01:02:33 V1F 5 00:21:20 00:03:41 JOGGING CLUB LICQUOIS 7,674 07:49
48 106 FASQUEL Antoine 01:02:35 SEM 6 00:21:22 00:20:49 - 7,670 07:49
49 118 NAJMI AICHA 01:02:42 V1F 6 00:21:29 00:03:50 LE DRAPEAU 7,656 07:50
50 19 GERVAIS Celine 01:02:49 SEF 22 00:21:36 00:18:11 BLANC NEZ TRIATHLON 7,641 07:51
51 8 CROOKS Willy 01:03:12 V2M 3 00:21:59 00:21:59 Run for fun 7,595 07:54
52 10 CROOKS Isabelle 01:03:12 V1F 7 00:21:59 00:04:20 Run for fun 7,595 07:54
53 71 CARON Anne sophie 01:03:14 SEF 23 00:22:01 00:18:36 Unirun 7,591 07:54
54 125 MAGNIER Vincent 01:03:15 SEM 7 00:22:02 00:21:29 - 7,589 07:54
55 32 BEWERSDORF Magdaléna 01:03:23 SEF 24 00:22:10 00:18:45 - 7,573 07:55
56 31 BEWERSDORF Renata 01:03:24 SEF 25 00:22:11 00:18:46 - 7,571 07:55
57 150 BOCQUET CHRISTOPHE 01:03:35 V2M 4 00:22:22 00:22:22 7,549 07:57
58 92 D'HALLENDE Charlotte 01:03:39 SEF 26 00:22:26 00:19:01 JOGGING CLUB LICQUOIS 7,541 07:57
59 97 DUBOILLE Sophie 01:03:46 SEF 27 00:22:33 00:19:08 - 7,527 07:58
60 12274 LEGRAND ANTHONY 01:03:54 SEM 8 00:22:41 00:22:08 - 7,512 07:59
61 7 DESOMBRE Aurelie 01:03:56 V1F 8 00:22:43 00:05:04 Run for fun 7,508 07:59
62 68 GAUTHIER Eric 01:04:06 V2M 5 00:22:53 00:22:53 Team valeric 7,488 08:01
63 18 PEINTE Laura 01:04:14 SEF 28 00:23:01 00:19:36 - 7,473 08:02
64 39 MOREL Xavier 01:04:14 SEM 9 00:23:01 00:22:28 - 7,473 08:02
65 25 DHIEUX Cindy 01:04:19 SEF 29 00:23:06 00:19:41 - 7,463 08:02
66 37 CAMBOULIVES Chloé 01:04:24 SEF 30 00:23:11 00:19:46 - 7,453 08:03
67 35 DUBOIS Pascal 01:04:24 V1M 11 00:23:11 00:19:43 - 7,453 08:03
68 93 LEMAIRE Léna 01:04:31 SEF 31 00:23:18 00:19:53 JOGGING CLUB LICQUOIS 7,440 08:04
69 81 DEWALLE Melanie 01:04:41 SEF 32 00:23:28 00:20:03 - 7,421 08:05
70 62 TURCEY Vanessa 01:04:52 SEF 33 00:23:39 00:20:14 - 7,400 08:07
71 100 DEBUICHE Anne 01:04:53 SEF 34 00:23:40 00:20:15 - 7,398 08:07
72 101 DEBUICHE Jean michel 01:04:53 V1M 12 00:23:40 00:20:12 - 7,398 08:07
73 96 REQUIN Chloé 01:04:55 SEF 35 00:23:42 00:20:17 JOGGING CLUB LICQUOIS 7,394 08:07
74 12262 AUDOOREN RACHEL 01:05:09 SEF 36 00:23:56 00:20:31 7,368 08:09
75 82 DELOHEN Céline 01:05:26 V1F 9 00:24:13 00:06:34 - 7,336 08:11
76 30 WAGENHEIM Sebastien 01:05:27 SEM 10 00:24:14 00:23:41 - 7,334 08:11
77 11 DURIEZ Marie 01:05:28 SEF 37 00:24:15 00:20:50 Run for fun 7,332 08:11
78 74 MESSEMAN Laura 01:05:30 SEF 38 00:24:17 00:20:52 - 7,328 08:11
79 38 CHATELAIN Alexandra 01:05:33 V1F 10 00:24:20 00:06:41 - 7,323 08:12
80 65 DELOHEN Pascaline 01:05:44 V1F 11 00:24:31 00:06:52 Cdl 7,302 08:13
81 136 CHENAL ALIETTE 01:06:25 SEF 39 00:25:12 00:21:47 - 7,227 08:18
82 94 NEUVILLE Audrey 01:06:26 SEF 40 00:25:13 00:21:48 JOGGING CLUB LICQUOIS 7,225 08:18
83 84 DUPUY Charles 01:06:26 SEM 11 00:25:13 00:24:40 - 7,225 08:18
84 50 ANTOINE Céline 01:06:49 SEF 41 00:25:36 00:22:11 - 7,184 08:21
85 12264 FRANCOIS CAMILLE 01:06:57 SEF 42 00:25:44 00:22:19 7,170 08:22
86 107 LEBOUCHER Gisèle 01:06:57 SEF 43 00:25:44 00:22:19 - 7,170 08:22
87 12263 TREILLE SARAH 01:07:07 SEF 44 00:25:54 00:22:29 7,152 08:23
88 117 HANON JEAN-PIERRE 01:07:13 V3M 1 00:26:00 00:00:00 LE DRAPEAU 7,141 08:24
89 27 MERCIER Christophe 01:07:13 V1M 13 00:26:00 00:22:32 - 7,141 08:24
90 134 MALLET Vincent 01:07:20 V1M 14 00:26:07 00:22:39 - 7,129 08:25
91 143 DELAINE PATRICK 01:07:20 V2M 6 00:26:07 00:26:07 7,129 08:25
92 45 LAMARRE Romain 01:07:27 SEM 12 00:26:14 00:25:41 - 7,116 08:26
93 105 ROBERT Simon 01:07:39 SEM 13 00:26:26 00:25:53 - 7,095 08:27
94 9 HERBAUT Melanie 01:07:56 V1F 12 00:26:43 00:09:04 Run for fun 7,066 08:30
95 110 NOWAK Celine 01:08:04 SEF 45 00:26:51 00:23:26 - 7,052 08:30
96 128 LESUR Emilien 01:08:04 JUM 3 00:26:51 00:23:05 - 7,052 08:30
97 85 AROLD Raphael 01:08:09 SEM 14 00:26:56 00:26:23 - 7,043 08:31
98 58 DE OLIVEIRA SANTOS Jana 01:08:48 V2F 2 00:27:35 00:09:14 - 6,977 08:36
99 124 OUTTIER Nathalie 01:08:48 SEF 46 00:27:35 00:24:10 - 6,977 08:36
100 126 WOESTELANDT Héloïse 01:08:48 SEF 47 00:27:35 00:24:10 - 6,977 08:36
101 123 CURAME Adam 01:08:49 SEM 15 00:27:36 00:27:03 - 6,975 08:36
102 43 LEBBE Louison 01:08:56 SEF 48 00:27:43 00:24:18 - 6,963 08:37
103 44 LAVIEVILLE Marie-laure 01:08:56 SEF 49 00:27:43 00:24:18 - 6,963 08:37
104 28 LEFEBVRE Lea 01:09:00 JUF 1 00:27:47 00:00:00 - 6,957 08:38
105 17 QUARRE Marion 01:09:07 SEF 50 00:27:54 00:24:29 - 6,945 08:38
106 140 KERFYSER CLEMENCE 01:09:19 SEF 51 00:28:06 00:24:41 6,925 08:40
107 122 DHIEUX Céline 01:09:22 SEF 52 00:28:09 00:24:44 - 6,920 08:40
108 121 HIARD CALYPSO 01:09:22 SEF 53 00:28:09 00:24:44 - 6,920 08:40
109 41 LE GONIDEC Laetitia 01:10:06 SEF 54 00:28:53 00:25:28 - 6,847 08:46
110 77 HOUVENAGHEL Valerie 01:10:13 V2F 3 00:29:00 00:10:39 - 6,836 08:47
111 115 DOCQUOIS AUDREY 01:10:57 V1F 13 00:29:44 00:12:05 LE DRAPEAU 6,765 08:52
112 57 DE OLIVEIRA SANTOS Vincent 01:11:18 CAM 1 00:30:05 00:00:00 - 6,732 08:55
113 64 VAN VOOREN Hélène 01:11:41 SEF 55 00:30:28 00:27:03 Atscaf 6,696 08:58
114 98 DELCAMBRE Christophe 01:11:42 V1M 15 00:30:29 00:27:01 - 6,695 08:58
115 34 LEBEURRE Estelle 01:11:45 SEF 56 00:30:32 00:27:07 - 6,690 08:58
116 149 ROSSI CATHERINE 01:11:57 V2F 4 00:30:44 00:12:23 6,671 09:00
117 54 HAMON Mélanie 01:12:22 SEF 57 00:31:09 00:27:44 - 6,633 09:03
118 86 CNOCKAERT Olivia 01:12:51 V1F 14 00:31:38 00:13:59 - 6,589 09:06
119 108 DEBAISIEUX Cedric 01:12:54 SEM 16 00:31:41 00:31:08 - 6,584 09:07
120 90 BRAYELLE Estelle 01:12:54 V1F 15 00:31:41 00:14:02 JOGGING CLUB LICQUOIS 6,584 09:07
121 138 HUMIERE VIRGINIE 01:12:54 SEF 58 00:31:41 00:28:16 AC OUTREAU 6,584 09:07
122 148 ROSSI FREDERIC 01:14:07 V3M 2 00:32:54 00:06:54 6,476 09:16
123 66 DEPATY Anne 01:14:20 SEF 59 00:33:07 00:29:42 - 6,457 09:18
124 141 DELECOURT DELPHINE 01:14:28 V1F 16 00:33:15 00:15:36 6,446 09:18
125 5 DELCROIX Marie-helene 01:14:29 SEF 60 00:33:16 00:29:51 - 6,444 09:19
126 132 BARBIER Fabien 01:14:55 SEM 17 00:33:42 00:33:09 - 6,407 09:22
127 131 LIGNIER Céline 01:14:56 SEF 61 00:33:43 00:30:18 - 6,406 09:22
128 120 PENET Maëvane 01:15:08 JUF 2 00:33:55 00:06:08 - 6,389 09:23
129 21 VIVIEZ Vincent 01:15:25 SEM 18 00:34:12 00:33:39 BLANC NEZ TRIATHLON 6,365 09:26
130 20 HEDDEBAUX Valeriane 01:15:26 SEF 62 00:34:13 00:30:48 BLANC NEZ TRIATHLON 6,363 09:26
131 6 POT Delphine 01:15:58 V1F 17 00:34:45 00:17:06 - 6,319 09:30
132 29 BUISINE Benedicte 01:15:58 V1F 18 00:34:45 00:17:06 - 6,319 09:30
133 3 SANFILIPPO Fabienne 01:16:53 V2F 5 00:35:40 00:17:19 - 6,243 09:37
134 79 BAILLEUX Emilie 01:18:12 SEF 63 00:36:59 00:33:34 - 6,138 09:46
135 36 AGEZ Betty 01:20:46 V1F 19 00:39:33 00:21:54 AS MARCK 5,943 10:06
136 60 VANDEN-TORREN Maxime 01:22:04 SEM 19 00:40:51 00:40:18 - 5,849 10:15
137 61 BEAUGEOIS Johanne 01:22:04 SEF 64 00:40:51 00:37:26 SPORT EVASION DES 2 CAPS 5,849 10:15
138 48 DEBAISIEUX Sophie 01:23:16 SEF 65 00:42:03 00:38:38 - 5,765 10:24
139 53 PERSYN Cyprien 01:27:27 JUM 4 00:46:14 00:42:28 - 5,489 10:56
140 167 LELEU Christel 01:28:04 V1F 20 00:46:51 00:29:12 - 5,450 11:01
141 393 LELEU David 01:28:24 V1M 16 00:47:11 00:43:43 - 5,430 11:03
142 83 BOUTANTIN Anaïs 01:37:01 SEF 66 00:55:48 00:52:23 - 4,948 12:08
143 142 DESQUIREZ JOHANN 01:37:06 SEM 20 00:55:53 00:55:20 4,943 12:08
Octobre 2018
Lun Mar Mer Jeu Ven Sam Dim
1
2
3
4
5
6
7
8
9
10
11
12
13
14
15
16
17
18
19
20
21
22
23
24
25
26
27
29
30
31